ISS (ZARYA) 1 25544U 98067A 25354.66673768 .00007293 00000+0 13711-3 0 9994 2 25544 51.6321 103.2234 0003163 277.4707 82.5922 15.49686708544085 CSS (TIANHE) 1 48274U 21035A 25354.97656123 .00013949 00000+0 17446-3 0 9994 2 48274 41.4685 326.6888 0007744 103.1948 256.9755 15.59514827265317 ISS (NAUKA) 1 49044U 21066A 25354.66673768 .00007293 00000+0 13711-3 0 9990 2 49044 51.6321 103.2234 0003163 277.4707 82.5922 15.49686708230448 FREGAT DEB 1 49271U 11037PF 25353.93861561 .00003390 00000+0 77751-2 0 9995 2 49271 51.6435 178.1467 0862536 239.3977 111.9064 12.34497882202827 CSS (WENTIAN) 1 53239U 22085A 25354.97656123 .00013949 00000+0 17446-3 0 9997 2 53239 41.4685 326.6888 0007744 103.1948 256.9755 15.59514827173840 CSS (MENGTIAN) 1 54216U 22143A 25354.97656123 .00013949 00000+0 17446-3 0 9998 2 54216 41.4685 326.6888 0007744 103.1948 256.9755 15.59514827158647 SHENZHOU-20 (SZ-20) 1 63632U 25082A 25354.97656123 .00013949 00000+0 17446-3 0 9995 2 63632 41.4685 326.6888 0007744 103.1948 256.9755 15.59514827255300 PROGRESS-MS 31 1 64751U 25146A 25354.66673768 .00007293 00000+0 13711-3 0 9995 2 64751 51.6321 103.2234 0003163 277.4707 82.5922 15.49686708 6755 TIANZHOU-9 1 64786U 25149A 25354.97656123 .00013949 00000+0 17446-3 0 9990 2 64786 41.4685 326.6888 0007744 103.1948 256.9755 15.59514827255301 CREW DRAGON 11 1 65077U 25166A 25354.66673768 .00007293 00000+0 13711-3 0 9999 2 65077 51.6321 103.2234 0003163 277.4707 82.5922 15.49686708 2146 DRAGON CRS-33 1 65304U 25186A 25354.66673768 .00007293 00000+0 13711-3 0 9994 2 65304 51.6321 103.2234 0003163 277.4707 82.5922 15.49686708 114 PROGRESS-MS 32 1 65586U 25204A 25354.66673768 .00007293 00000+0 13711-3 0 9997 2 65586 51.6321 103.2234 0003163 277.4707 82.5922 15.49686708 273 CYGNUS NG-23 1 65616U 25208A 25354.66673768 .00007293 00000+0 13711-3 0 9995 2 65616 51.6321 103.2234 0003163 277.4707 82.5922 15.49686708 222 DRAGONFLY 1 65729U 98067XH 25354.48802592 .00147536 00000+0 98006-3 0 9997 2 65729 51.6254 96.0114 0007437 325.9909 34.0612 15.74448787 14380 1998-067XK 1 65731U 98067XK 25354.00696790 .00076617 00000+0 70175-3 0 9997 2 65731 51.6294 100.3244 0004763 292.7833 67.2659 15.67078773 14280 RSP-03 1 65732U 98067XL 25353.42469933 .00106087 00000+0 84699-3 0 9991 2 65732 51.6265 102.4221 0005658 294.5755 65.4652 15.70283101 14217 GHS-01 1 65733U 98067XM 25354.86685900 .00191722 00000+0 10694-2 0 9998 2 65733 51.6278 93.2966 0008587 331.6414 28.4119 15.78264092 14464 YOTSUBA-KULOVER 1 65941U 98067XN 25354.72017268 .00050568 00000+0 60496-3 0 9998 2 65941 51.6291 99.8352 0001834 329.1843 30.9043 15.60468016 11102 BOTAN 1 65942U 98067XP 25354.57898423 .00082185 00000+0 83574-3 0 9994 2 65942 51.6283 99.6415 0002950 304.2475 55.8240 15.64441775 11097 E-KAGAKU-1 1 65943U 98067XQ 25352.35057484 .00070368 00000+0 84620-3 0 9996 2 65943 51.6302 111.7666 0001345 249.8249 110.2600 15.60193795 10732 HRC MONOBLOCK CAMERA 1 66052U 98067XR 25354.81599391 .00025470 00000+0 38307-3 0 9994 2 66052 51.6308 101.2223 0002396 223.3083 136.7720 15.54673430 10090 HTV-X1 1 66174U 25241A 25354.66673768 .00007293 00000+0 13711-3 0 9992 2 66174 51.6321 103.2234 0003163 277.4707 82.5922 15.49686708 514 SZ-21 MODULE 1 66515U 25246C 25354.97517214 .00021102 00000+0 22986-3 0 9992 2 66515 41.4771 325.7933 0005450 303.7455 56.2865 15.62888699 5731 SHENZHOU-22 1 66645U 25272A 25354.97656123 .00013949 00000+0 17446-3 0 9993 2 66645 41.4685 326.6888 0007744 103.1948 256.9755 15.59514827265195 SOYUZ-MS 28 1 66664U 25275A 25354.66673768 .00007293 00000+0 13711-3 0 9993 2 66664 51.6321 103.2234 0003163 277.4707 82.5922 15.49686708 1283 1998-067XS 1 66906U 98067XS 25354.46222212 .00021596 00000+0 37246-3 0 9994 2 66906 51.6311 104.1082 0003002 237.5000 122.5699 15.50962254 2818 1998-067XT 1 66907U 98067XT 25353.48808759 .00047666 00000+0 77339-3 0 9995 2 66907 51.6306 108.8528 0003998 265.7173 94.3360 15.52255247 2660 1998-067XU 1 66908U 98067XU 25354.58170096 .00045874 00000+0 73918-3 0 9992 2 66908 51.6312 103.4063 0003923 272.2862 87.7679 15.52465702 2836 SILVERSAT 1 66909U 98067XV 25353.55080352 .00049748 00000+0 79912-3 0 9998 2 66909 51.6306 108.5226 0003839 268.6960 91.3590 15.52516520 2671 1998-067XW 1 66910U 98067XW 25354.83633681 .00044930 00000+0 71944-3 0 9996 2 66910 51.6307 102.1064 0004199 252.0731 107.9801 15.52648438 2872 1998-067XX 1 66911U 98067XX 25354.64075390 .00051512 00000+0 81113-3 0 9996 2 66911 51.6313 103.0498 0003876 258.0568 101.9988 15.53054787 2831 1998-067XY 1 66912U 98067XY 25353.61960698 .00038197 00000+0 63264-3 0 9998 2 66912 51.6307 108.2310 0004012 260.8810 99.1725 15.51780846 2678